Berlin, NH

7:49 AM EDT on June 25, 2017 (GMT -0400)
Berlin Municipal

Weather History for KBML - November, 2011

Change the Weather History Date:

Sunday, November 20, 2011

  Actual Average Record
Temperature  
Mean Temperature 44 °F -  
Max Temperature 55 °F 38 °F 55 °F (2001)
Min Temperature 32 °F 21 °F 8 °F (2007)
Degree Days  
Heating Degree Days 22    
Moisture  
Dew Point 36 °F    
Average Humidity 68    
Maximum Humidity 80    
Minimum Humidity 44    
Precipitation  
Precipitation 0.00 in - - ()
Sea Level Pressure  
Sea Level Pressure 29.98 in    
Wind  
Wind Speed 5 mph (NW)    
Max Wind Speed 13 mph    
Max Gust Speed 21 mph    
Visibility 10 miles    
Events Rain    
Averages and records for this station are not official NWS values.
T = Trace of Precipitation, MM = Missing Value Source: NWS Daily Summary

Daily Weather History Graph

Daily Weather History Graph

Search for Another Location

Airport or City:

Trip Planner

Search our weather history database for the weather conditions in past years. The results will help you decide how hot, cold, wet, or windy it might be!

Date:

Astronomy

Nov. 20, 2011 Rise Set
Actual Time 6:47 AM EST 4:12 PM EST
Civil Twilight 6:15 AM EST 4:44 PM EST
Nautical Twilight 5:39 AM EST 5:20 PM EST
Astronomical Twilight 5:05 AM EST 5:54 PM EST
Moon 1:00 AM EST (11/20) 1:10 PM EST (11/20)
Length of Visible Light 10h 29m
Length of Day
9h 25m
Waning Crescent, 27% of the Moon is Illuminated
Nov 20
Waning Crescent
Nov 25
New
Dec 2
First Quarter
Dec 10
Full
Dec 17
Last Quarter

Hourly Weather History & Observations

Time (EST) Temp. Windchill Dew Point Humidity Pressure Visibility Wind Dir Wind Speed Gust Speed Precip Events Conditions
12:52 AM 32.0 °F - 24.1 °F 73% 30.06 in 10.0 mi Calm Calm - N/A   Mostly Cloudy
1:52 AM 33.1 °F 30.0 °F 25.0 °F 72% 30.04 in 10.0 mi WSW 3.5 mph - N/A   Overcast
2:52 AM 35.1 °F 32.2 °F 27.0 °F 72% 30.01 in 10.0 mi East 3.5 mph - N/A   Overcast
3:52 AM 37.9 °F - 27.0 °F 65% 29.98 in 10.0 mi Calm Calm - N/A   Overcast
4:52 AM 39.0 °F 36.8 °F 25.0 °F 57% 29.96 in 10.0 mi Variable 3.5 mph - N/A   Overcast
5:52 AM 44.1 °F 41.5 °F 26.1 °F 49% 29.94 in 10.0 mi Variable 4.6 mph - N/A   Mostly Cloudy
6:52 AM 50.0 °F - 28.9 °F 44% 29.93 in 10.0 mi South 12.7 mph 18.4 mph 0.00 in   Overcast
7:52 AM 46.9 °F - 36.0 °F 66% 29.94 in 9.0 mi South 10.4 mph 16.1 mph 0.00 in Rain Light Rain
8:52 AM 50.0 °F - 37.9 °F 63% 29.91 in 10.0 mi SSE 9.2 mph - 0.00 in   Overcast
9:52 AM 52.0 °F - 37.0 °F 57% 29.88 in 10.0 mi SSW 9.2 mph - N/A   Overcast
11:52 AM 55.9 °F - 39.9 °F 55% 29.85 in 10.0 mi Variable 5.8 mph 19.6 mph N/A   Overcast
12:52 PM 55.9 °F - 41.0 °F 57% 29.85 in 10.0 mi Calm Calm - N/A   Scattered Clouds
1:52 PM 55.9 °F - 41.0 °F 57% 29.86 in 10.0 mi West 8.1 mph 17.3 mph N/A   Mostly Cloudy
2:52 PM 53.1 °F - 44.1 °F 71% 29.91 in 10.0 mi WNW 8.1 mph 20.7 mph 0.00 in   Overcast
3:30 PM 51.8 °F - 44.6 °F 76% 29.91 in 10.0 mi NW 6.9 mph - 0.00 in   Overcast
3:52 PM 52.0 °F - 45.0 °F 77% 29.94 in 10.0 mi NNW 6.9 mph - 0.00 in   Overcast
4:28 PM 51.8 °F - 44.6 °F 76% 29.93 in 10.0 mi Variable 6.9 mph - N/A   Overcast
4:52 PM 50.0 °F - 44.1 °F 80% 29.97 in 10.0 mi Calm Calm - N/A   Overcast
5:52 PM 50.0 °F - 41.0 °F 71% 29.99 in 10.0 mi Variable 6.9 mph 19.6 mph 0.00 in   Mostly Cloudy
6:52 PM 46.9 °F - 39.0 °F 74% 30.02 in 10.0 mi North 6.9 mph - N/A   Partly Cloudy
7:24 PM 46.4 °F 44.3 °F 37.4 °F 71% 30.01 in 10.0 mi Variable 4.6 mph - N/A   Mostly Cloudy
7:52 PM 45.0 °F 43.5 °F 37.0 °F 74% 30.04 in 10.0 mi NW 3.5 mph - N/A   Overcast
8:52 PM 44.1 °F 40.8 °F 36.0 °F 73% 30.06 in 10.0 mi NNW 5.8 mph - N/A   Overcast
9:24 PM 42.8 °F 38.6 °F 35.6 °F 76% 30.04 in 10.0 mi NW 6.9 mph - N/A   Mostly Cloudy
9:47 PM 41.0 °F 33.9 °F 33.8 °F 76% 30.05 in 10.0 mi NNW 12.7 mph 16.1 mph N/A   Overcast
9:52 PM 41.0 °F 34.3 °F 34.0 °F 76% 30.08 in 10.0 mi NNW 11.5 mph - N/A   Overcast
10:52 PM 39.0 °F 33.4 °F 32.0 °F 76% 30.11 in 10.0 mi North 8.1 mph - N/A   Overcast
11:52 PM 37.9 °F 32.7 °F 30.0 °F 73% 30.13 in 10.0 mi NW 6.9 mph - N/A   Overcast